Tracking 30743 objects as of 21-Jun-2025
HD Live streaming from Space Station
objects crossing your sky now

SJ 16-02 DEB

Track SJ 16-02 DEB now!
10-day predictions


NORAD ID: 43428
Int'l Code: 2016-043C
Perigee: 595.0 km
Apogee: 953.8 km
Inclination: 75.0 °
Period: 100.2 minutes
Semi major axis: 7145 km
RCS: Unknown
Launch date: June 29, 2016
Source: People's Republic of China (PRC)
Launch site: Jiuquan Satellite Launch Center, China (JSC)

Note: This is SATELLITE DEBRIS
Your satellite tracking list
Your tracking list is empty




NASA's NSSDC Master Catalog

Two Line Element Set (TLE):
1 43428U 16043C   25170.38047280  .00001863  00000-0  43885-3 0  9991
2 43428  74.9632  57.4044 0251051 179.4662 180.6818 14.37341858466829
Source of the keplerian elements: AFSPC